1508223600.84,5659,16.56,74824.8,12.33,-28.37,-30.73,0,*78
1508223602.07,5660,16.56,74826.5,12.29,-27.55,-29.83,0,*75
1508223603.34,5661,16.56,74822.3,12.29,-27.19,-29.73,0,*73
1508223604.53,5662,16.63,74826.5,12.31,-27.03,-29.57,0,*74
1508223605.8,5663,16.56,74820.5,12.29,-26.77,-29.29,0,*77
1508223607.06,5664,16.56,74822.5,12.29,-27.07,-29.73,0,*79
1508223608.27,5665,16.56,74820.0,12.31,-27.83,-30.27,0,*74
1508223609.47,5666,16.56,74822.0,12.27,-27.55,-29.95,0,*7A
1508223610.7,5667,16.56,74820.0,12.27,-27.23,-29.57,0,*74
1508223611.95,5668,16.56,74816.8,12.29,-27.23,-29.61,0,*70
1508223613.19,5669,16.56,74820.8,12.29,-26.87,-29.39,0,*73
1508223614.43,5670,16.56,74820.5,12.29,-26.55,-28.97,0,*71
1508223615.63,5671,16.56,74822.3,12.31,-26.65,-29.23,0,*74
1508223616.85,5672,16.56,74822.3,12.31,-26.49,-29.01,0,*79
1508223618.1,5673,16.56,74820.5,12.29,-26.87,-29.39,0,*78
1508223619.31,5674,16.56,74818.5,12.29,-26.61,-29.07,0,*7A
1508223620.56,5675,16.56,74820.5,12.29,-25.91,-28.25,0,*76
1508223621.82,5676,16.63,74824.0,12.31,-25.71,-27.99,0,*7A
1508223623.04,5677,16.56,74820.8,12.31,-26.49,-28.91,0,*74
1508223624.3,5678,16.56,74822.8,12.33,-26.49,-28.91,0,*79
1508223625.55,5679,16.63,74822.8,12.33,-27.13,-29.51,0,*7B
1508223626.81,5680,16.56,74822.8,12.33,-26.49,-28.91,0,*7E
1508223628.06,5681,16.63,74822.8,12.31,-26.17,-28.63,0,*7B
1508223629.31,5682,16.63,74820.8,12.35,-25.97,-28.43,0,*75
1508223630.51,5683,16.56,74820.5,12.35,-26.45,-28.69,0,*70
1508223631.76,5684,16.56,74822.0,12.33,-25.97,-28.37,0,*76
1508223633.04,5685,16.63,74824.5,12.33,-26.29,-28.59,0,*79
1508223634.27,5686,16.56,74820.5,12.35,-26.07,-28.43,0,*7B
1508223635.5,5687,16.56,74820.8,12.35,-25.65,-27.99,0,*75
1508223636.74,5688,16.63,74820.5,12.37,-25.45,-27.89,0,*7B
1508223637.99,5689,16.56,74822.8,12.37,-25.61,-28.05,0,*77
1508223639.23,5690,16.56,74820.0,12.39,-26.03,-28.25,0,*74
1508223640.46,5691,16.63,74822.3,12.39,-25.87,-28.21,0,*7E
1508223641.74,5692,16.56,74822.3,12.41,-25.55,-27.83,0,*7A
1508223642.99,5693,16.56,74822.0,12.41,-25.39,-27.83,0,*71
1508223644.27,5694,16.63,74824.5,12.41,-25.55,-27.99,0,*77
1508223645.46,5695,16.63,74822.8,12.43,-25.35,-27.77,0,*72
1508223646.75,5696,16.56,74820.5,12.41,-25.71,-28.21,0,*7F
1508223648.0,5697,16.56,74820.5,12.41,-26.49,-29.01,0,*75
1508223649.27,5698,16.63,74826.3,12.41,-26.71,-29.17,0,*76
1508223650.49,5699,16.63,74826.8,12.43,-26.61,-29.01,0,*73
1508223651.71,5700,16.56,74822.5,12.43,-26.61,-29.17,0,*75
1508223652.94,5701,16.63,74826.5,12.43,-26.33,-28.69,0,*7B
1508223654.18,5702,16.63,74826.3,12.41,-26.55,-29.07,0,*73
1508223655.4,5703,16.63,74824.5,12.43,-26.93,-29.57,0,*7F
1508223656.65,5704,16.63,74824.8,12.43,-26.81,-29.29,0,*72
1508223657.88,5705,16.63,74824.3,12.43,-26.97,-29.57,0,*7D
1508223659.11,5706,16.63,74822.0,12.43,-26.97,-29.45,0,*7D
1508223660.33,5707,16.56,74820.8,12.41,-27.13,-29.57,0,*70
1508223661.56,5708,16.63,74826.5,12.43,-27.23,-29.67,0,*7D
1508223662.8,5709,16.56,74824.3,12.41,-27.35,-29.79,0,*76
1508223664.05,5710,16.63,74824.3,12.41,-27.45,-29.95,0,*7B
1508223665.28,5711,16.56,74822.8,12.41,-27.67,-30.23,0,*7F
1508223666.5,5712,16.63,74824.8,12.37,-27.55,-30.11,0,*7D
1508223667.71,5713,16.63,74822.3,12.39,-27.77,-30.33,0,*72
1508223668.99,5714,16.63,74822.5,12.37,-28.21,-30.61,0,*70
1508223670.22,5715,16.63,74820.3,12.37,-27.77,-30.33,0,*7A
1508223671.47,5716,16.63,74822.5,12.37,-27.39,-29.83,0,*70
1508223672.73,5717,16.63,74820.0,12.35,-28.59,-31.11,0,*78
1508223673.98,5718,16.63,74820.8,12.35,-27.39,-29.89,0,*76
1508223675.2,5719,16.56,74818.0,12.35,-27.55,-30.05,0,*71
1508223676.42,5720,16.63,74822.3,12.33,-26.61,-29.23,0,*77
1508223677.65,5721,16.63,74820.5,12.35,-26.65,-29.01,0,*74
1508223678.91,5722,16.63,74818.5,12.35,-26.81,-29.17,0,*7A
1508223680.14,5723,16.63,74822.0,12.35,-27.07,-29.51,0,*76
1508223681.39,5724,16.63,74818.5,12.35,-26.81,-29.29,0,*71
1508223682.6,5725,16.63,74820.8,12.35,-26.61,-29.13,0,*77
1508223683.85,5726,16.63,74818.0,12.37,-26.93,-29.45,0,*78
1508223685.07,5727,16.63,74822.5,12.37,-26.61,-29.07,0,*72
1508223686.32,5728,16.63,74820.5,12.37,-26.93,-29.45,0,*76
1508223687.56,5729,16.63,74822.0,12.37,-26.61,-29.13,0,*79
1508223688.81,5730,16.63,74820.5,12.37,-27.39,-29.83,0,*74
1508223690.05,5731,16.63,74816.8,12.37,-26.55,-29.07,0,*72
1508223691.29,5732,16.63,74822.8,12.37,-26.71,-29.23,0,*71
1508223692.49,5733,16.63,74820.5,12.35,-26.49,-28.97,0,*77
1508223693.74,5734,16.63,74820.0,12.37,-26.77,-29.07,0,*77
1508223694.99,5735,16.63,74820.5,12.37,-27.23,-29.67,0,*70
1508223696.24,5736,16.63,74818.3,12.37,-26.39,-28.91,0,*71
1508223697.52,5737,16.63,74820.0,12.37,-25.75,-28.21,0,*70
1508223698.74,5738,16.63,74820.3,12.37,-25.91,-28.37,0,*72
1508223699.96,5739,16.63,74818.8,12.39,-25.45,-27.89,0,*7E
1508223701.17,5740,16.63,74820.8,12.43,-25.35,-27.83,0,*70
1508223702.4,5741,16.63,74820.3,12.43,-25.61,-27.99,0,*7B
1508223703.61,5742,16.63,74818.0,12.43,-25.45,-27.93,0,*74
1508223704.83,5743,16.63,74816.3,12.43,-25.61,-28.09,0,*7F
1508223706.09,5744,16.63,74818.3,12.45,-25.49,-27.99,0,*72
1508223707.35,5745,16.63,74822.3,12.45,-25.75,-28.15,0,*77
1508223708.62,5746,16.63,74816.5,12.45,-26.29,-28.79,0,*74
1508223709.88,5747,16.63,74820.0,12.45,-25.97,-28.31,0,*7F
1508223711.13,5748,16.63,74818.5,12.49,-25.55,-27.93,0,*75
1508223712.33,5749,16.63,74818.3,12.51,-25.49,-27.89,0,*7B
1508223713.56,5750,16.63,74818.0,12.51,-25.39,-27.83,0,*7E
1508223714.81,5751,16.63,74818.3,12.53,-25.49,-28.05,0,*7B
1508223716.04,5752,16.63,74820.8,12.53,-26.23,-28.75,0,*70
1508223717.31,5753,16.63,74820.8,12.53,-26.33,-28.75,0,*70
1508223718.56,5754,16.63,74818.0,12.53,-25.87,-28.21,0,*7A
1508223719.85,5755,16.63,74816.5,12.57,-26.17,-28.63,0,*73
1508223721.1,5756,16.63,74820.0,12.57,-26.29,-28.69,0,*77
1508223722.29,5757,16.63,74818.0,12.55,-25.49,-27.93,0,*7B
1508223723.51,5758,16.63,74818.0,12.55,-25.19,-27.61,0,*7C
1508223724.74,5759,16.63,74818.0,12.59,-25.55,-27.89,0,*7F
1508223725.95,5760,16.63,74822.3,12.59,-25.45,-27.77,0,*75
1508223727.15,5761,16.63,74818.5,12.59,-25.39,-27.71,0,*79
1508223728.34,5762,16.63,74820.8,12.59,-25.39,-27.71,0,*7A
1508223729.54,5763,16.63,74816.5,12.61,-25.09,-27.55,0,*75
1508223730.79,5764,16.63,74820.0,12.63,-25.49,-27.83,0,*7F
1508223732.02,5765,16.63,74820.8,12.65,-25.29,-27.67,0,*74
1508223733.27,5766,16.63,74818.3,12.63,-25.09,-27.39,0,*78
1508223734.47,5767,16.63,74820.5,12.65,-25.35,-27.77,0,*7A
1508223735.69,5768,16.63,74816.0,12.65,-25.35,-27.83,0,*7E
1508223736.97,5769,16.63,74816.5,12.63,-25.97,-28.21,0,*76
1508223738.23,5770,16.63,74822.3,12.67,-26.07,-28.47,0,*70
1508223739.49,5771,16.63,74820.0,12.67,-25.97,-28.31,0,*7A
1508223740.69,5772,16.63,74822.0,12.69,-25.87,-28.15,0,*70
1508223741.97,5773,16.63,74816.8,12.67,-25.97,-28.43,0,*7D
1508223743.24,5774,16.63,74822.0,12.67,-26.71,-29.13,0,*75
1508223744.48,5775,16.63,74818.0,12.67,-26.87,-29.17,0,*79
1508223745.7,5776,16.63,74818.0,12.69,-26.23,-28.63,0,*78
1508223746.93,5777,16.63,74818.5,12.69,-26.93,-29.45,0,*77
1508223748.2,5778,16.63,74818.8,12.67,-26.71,-29.13,0,*79
1508223749.43,5779,16.63,74820.5,12.67,-26.07,-28.31,0,*78
1508223750.63,5780,16.63,74818.3,12.69,-25.61,-27.93,0,*74
1508223751.85,5781,16.63,74822.3,12.69,-25.71,-27.93,0,*74
1508223753.07,5782,16.63,74820.5,12.69,-25.29,-27.77,0,*70
1508223754.27,5783,16.63,74818.3,12.69,-25.61,-27.89,0,*7C
1508223755.47,5784,16.63,74820.5,12.73,-25.23,-27.67,0,*76
1508223756.67,5785,16.63,74820.3,12.73,-25.23,-27.67,0,*77
1508223757.94,5786,16.63,74820.3,12.75,-25.29,-27.61,0,*7E
1508223759.14,5787,16.63,74820.3,12.77,-25.87,-28.31,0,*73
1508223760.37,5788,16.63,74820.5,12.77,-25.87,-28.21,0,*7D
1508223761.62,5789,16.63,74822.0,12.77,-25.75,-28.05,0,*77
1508223762.85,5790,16.63,74818.5,12.77,-25.65,-28.05,0,*7E
1508223764.04,5791,16.63,74820.5,12.77,-25.65,-27.93,0,*7F
1508223765.27,5792,16.63,74820.0,12.79,-25.61,-27.89,0,*7D
1508223766.5,5793,16.63,74820.0,12.77,-26.03,-28.47,0,*78
1508223767.77,5794,16.63,74820.8,12.79,-25.97,-28.43,0,*7B
1508223768.99,5795,16.63,74822.0,12.81,-25.91,-28.25,0,*7B
1508223770.19,5796,16.63,74818.8,12.81,-25.91,-28.31,0,*7D
1508223771.44,5797,16.63,74818.0,12.83,-26.07,-28.43,0,*77
1508223772.66,5798,16.63,74822.5,12.81,-25.71,-27.93,0,*7A
1508223773.86,5799,16.63,74820.8,12.81,-25.61,-27.93,0,*7A
1508223775.1,5800,16.63,74820.5,12.83,-26.23,-28.59,0,*7B
1508223776.34,5801,16.63,74822.8,12.83,-26.49,-28.75,0,*78
1508223777.57,5802,16.63,74822.8,12.81,-26.23,-28.63,0,*72
1508223778.79,5803,16.63,74822.8,12.83,-27.03,-29.45,0,*77
1508223780.04,5804,16.63,74826.0,12.83,-26.93,-29.45,0,*78
1508223781.26,5805,16.63,74824.8,12.81,-27.45,-29.95,0,*7C
1508223782.48,5806,16.63,74824.8,12.81,-28.15,-30.55,0,*71
1508223783.71,5807,16.63,74824.3,12.77,-28.69,-31.11,0,*73
1508223784.91,5808,16.63,74826.5,12.77,-28.85,-31.29,0,*75
1508223786.14,5809,16.63,74826.0,12.77,-28.69,-31.11,0,*7D
1508223787.4,5810,16.63,74822.8,12.73,-28.09,-30.61,0,*71
1508223788.66,5811,16.63,74822.3,12.73,-28.25,-30.77,0,*79
1508223789.89,5812,16.63,74816.3,12.69,-28.63,-31.01,0,*73
1508223791.12,5813,16.63,74820.5,12.69,-28.25,-30.67,0,*71
1508223792.4,5814,16.63,74820.5,12.67,-26.93,-29.17,0,*74
1508223793.63,5815,16.63,74816.3,12.67,-27.55,-29.95,0,*74
1508223794.86,5816,16.63,74816.5,12.69,-27.89,-30.17,0,*7A
1508223796.14,5817,16.63,74816.8,12.67,-28.79,-31.39,0,*78
1508223797.34,5818,16.63,74818.8,12.65,-29.83,-32.13,0,*7A
1508223798.6,5819,16.63,74816.0,12.63,-29.57,-32.07,0,*71
1508223799.83,5820,16.69,74818.8,12.61,-29.07,-31.57,0,*7A
1508223801.06,5821,16.63,74816.3,12.59,-29.45,-32.07,0,*70
1508223802.31,5822,16.69,74820.3,12.59,-29.13,-31.61,0,*73
1508223803.56,5823,16.63,74816.0,12.55,-29.35,-31.85,0,*70
1508223804.78,5824,16.63,74812.8,12.55,-29.29,-31.67,0,*76
1508223806.03,5825,16.63,74818.5,12.53,-28.91,-31.29,0,*79
1508223807.26,5826,16.63,74816.8,12.53,-28.85,-31.29,0,*7F
1508223808.49,5827,16.69,74818.8,12.51,-29.07,-31.61,0,*7B
1508223809.7,5828,16.63,74818.8,12.51,-27.83,-30.11,0,*70
1508223810.92,5829,16.63,74816.3,12.51,-27.13,-29.39,0,*7A
1508223812.17,5830,16.63,74816.8,12.53,-27.03,-29.39,0,*71
1508223813.36,5831,16.63,74818.3,12.51,-27.51,-29.95,0,*73
1508223814.6,5832,16.63,74812.0,12.53,-26.87,-29.17,0,*72
1508223815.83,5833,16.63,74816.3,12.51,-26.81,-29.07,0,*76
1508223817.05,5834,16.63,74816.8,12.55,-27.13,-29.51,0,*7C
1508223818.28,5835,16.63,74814.8,12.53,-27.19,-29.61,0,*72
1508223819.5,5836,16.63,74812.3,12.51,-26.71,-29.23,0,*7A
1508223820.76,5837,16.63,74816.8,12.51,-26.33,-28.43,0,*7A
1508223822.02,5838,16.63,74816.0,12.53,-26.71,-29.17,0,*71
1508223823.26,5839,16.63,74818.8,12.55,-26.93,-29.13,0,*7E
1508223824.48,5840,16.63,74816.8,12.55,-26.13,-28.53,0,*7D
1508223825.71,5841,16.63,74818.8,12.59,-26.03,-28.25,0,*70
1508223826.99,5842,16.69,74820.0,12.57,-25.75,-28.09,0,*71
1508223828.22,5843,16.63,74816.5,12.61,-26.23,-28.63,0,*79
1508223829.47,5844,16.63,74816.5,12.61,-26.55,-28.91,0,*72
1508223830.66,5845,16.63,74816.5,12.59,-27.03,-29.23,0,*72
1508223831.91,5846,16.63,74816.3,12.57,-27.29,-29.73,0,*72
1508223833.15,5847,16.63,74818.3,12.59,-27.19,-29.51,0,*7E
1508223834.41,5848,16.63,74816.3,12.61,-27.39,-29.89,0,*7D
1508223835.66,5849,16.63,74816.3,12.59,-26.93,-29.35,0,*71
1508223836.86,5850,16.63,74816.5,12.59,-27.29,-29.83,0,*74
1508223838.07,5851,16.63,74814.5,12.59,-27.29,-29.67,0,*7F
1508223839.29,5852,16.63,74816.8,12.59,-27.61,-30.11,0,*79
1508223840.52,5853,16.69,74820.3,12.59,-27.93,-30.17,0,*73
1508223841.8,5854,16.69,74818.3,12.57,-27.45,-29.73,0,*7B
1508223843.07,5855,16.69,74818.0,12.57,-27.99,-30.55,0,*77
1508223844.3,5856,16.69,74816.0,12.55,-28.69,-31.11,0,*77
1508223845.54,5857,16.69,74822.3,12.55,-28.47,-30.95,0,*77
1508223846.77,5858,16.63,74816.3,12.53,-28.37,-30.83,0,*7E
1508223848.02,5859,16.69,74818.8,12.53,-28.15,-30.77,0,*74
1508223849.28,5860,16.69,74816.8,12.53,-28.31,-30.77,0,*78
1508223850.53,5861,16.63,74814.3,12.51,-28.05,-30.39,0,*76
1508223851.73,5862,16.69,74818.3,12.51,-27.51,-29.95,0,*75
1508223852.99,5863,16.69,74816.3,12.53,-27.35,-29.73,0,*7C
1508223854.21,5864,16.69,74818.0,12.51,-27.55,-30.05,0,*76
1508223855.46,5865,16.69,74816.3,12.51,-27.83,-30.39,0,*73
1508223856.68,5866,16.69,74816.8,12.51,-27.03,-29.39,0,*70
1508223857.9,5867,16.69,74816.0,12.51,-27.19,-29.61,0,*77
1508223859.1,5868,16.69,74816.3,12.51,-27.29,-29.79,0,*72
1508223860.29,5869,16.69,74818.3,12.51,-27.55,-30.11,0,*7E
1508223861.49,5870,16.69,74818.8,12.51,-27.67,-30.11,0,*77
1508223862.74,5871,16.69,74816.3,12.53,-27.89,-30.39,0,*7E
1508223863.97,5872,16.69,74820.0,12.49,-27.77,-30.45,0,*7C
1508223865.23,5873,16.69,74818.5,12.49,-28.21,-30.67,0,*71
1508223866.51,5874,16.69,74812.8,12.49,-28.43,-30.89,0,*72
1508223867.79,5875,16.69,74816.8,12.45,-28.63,-31.11,0,*7D
1508223869.08,5876,16.69,74812.8,12.49,-28.21,-30.73,0,*71
1508223870.36,5877,16.69,74816.3,12.45,-28.09,-30.55,0,*72
1508223871.58,5878,16.69,74814.5,12.43,-27.83,-30.23,0,*77
1508223872.83,5879,16.69,74816.8,12.43,-28.63,-31.23,0,*76
1508223874.06,5880,16.69,74814.5,12.43,-28.63,-31.29,0,*7A
1508223875.28,5881,16.69,74812.8,12.41,-28.69,-31.33,0,*78
1508223876.56,5882,16.69,74812.5,12.41,-29.01,-31.51,0,*70
1508223877.84,5883,16.69,74812.8,12.37,-28.91,-31.39,0,*76
1508223879.09,5884,16.69,74814.0,12.39,-29.13,-31.51,0,*7A
1508223880.34,5885,16.69,74814.0,12.37,-29.23,-31.73,0,*76
1508223881.56,5886,16.69,74814.5,12.37,-29.07,-31.67,0,*76
1508223882.79,5887,16.69,74812.3,12.35,-28.85,-31.39,0,*75
1508223884.04,5888,16.69,74814.5,12.33,-27.45,-29.79,0,*72
1508223885.3,5889,16.69,74816.0,12.37,-26.93,-29.57,0,*71
1508223886.54,5890,16.69,74814.0,12.35,-27.23,-29.73,0,*77
1508223887.8,5891,16.69,74814.0,12.37,-28.09,-30.67,0,*7E
1508223889.06,5892,16.69,74816.8,12.37,-28.53,-30.89,0,*72
1508223890.28,5893,16.69,74814.5,12.37,-27.71,-30.27,0,*78
1508223891.51,5894,16.69,74812.8,12.35,-27.83,-30.33,0,*75
1508223892.75,5895,16.69,74810.5,12.35,-28.25,-30.67,0,*76
1508223894.0,5896,16.69,74814.0,12.33,-28.37,-30.95,0,*7D
1508223895.25,5897,16.69,74816.8,12.33,-28.15,-30.55,0,*70
1508223896.5,5898,16.69,74818.5,12.33,-28.47,-31.01,0,*78
1508223897.75,5899,16.69,74812.8,12.35,-28.09,-30.55,0,*75
1508223899.0,5900,16.69,74812.8,12.35,-28.63,-31.11,0,*79
1508223900.26,5901,16.69,74812.5,12.33,-28.53,-30.95,0,*70
1508223901.47,5902,16.69,74812.0,12.35,-28.15,-30.67,0,*7A
1508223902.71,5903,16.69,74814.5,12.31,-27.99,-30.55,0,*75
1508223903.97,5904,16.69,74812.3,12.31,-28.21,-30.61,0,*79
1508223905.19,5905,16.69,74812.8,12.29,-27.51,-29.83,0,*7D
1508223906.43,5906,16.69,74812.8,12.31,-27.19,-29.73,0,*74
1508223907.68,5907,16.69,74816.8,12.31,-27.45,-30.05,0,*75
1508223908.88,5908,16.69,74812.8,12.31,-27.29,-29.67,0,*7C
1508223910.14,5909,16.69,74812.5,12.33,-27.13,-29.51,0,*73
1508223911.39,5910,16.69,74814.5,12.35,-27.99,-30.39,0,*79
1508223912.64,5911,16.69,74812.5,12.33,-28.05,-30.45,0,*7F
1508223913.89,5912,16.69,74812.5,12.33,-27.19,-29.67,0,*76
1508223915.15,5913,16.69,74812.3,12.33,-26.65,-29.01,0,*7D
1508223916.36,5914,16.69,74810.8,12.35,-26.23,-28.43,0,*79
1508223917.57,5915,16.69,74812.3,12.35,-25.65,-28.15,0,*7A
1508223918.82,5916,16.69,74814.8,12.37,-25.61,-28.05,0,*7E
1508223920.05,5917,16.69,74812.5,12.39,-25.91,-28.25,0,*7C
1508223921.3,5918,16.69,74812.0,12.39,-25.71,-28.09,0,*73
1508223922.56,5919,16.69,74814.8,12.41,-25.87,-28.21,0,*7E
1508223923.78,5920,16.69,74816.3,12.43,-25.65,-27.99,0,*76
1508223925.03,5921,16.69,74818.0,12.41,-25.55,-27.77,0,*76
1508223926.31,5922,16.69,74814.0,12.45,-25.81,-28.09,0,*7E
1508223927.56,5923,16.69,74816.0,12.49,-26.07,-28.43,0,*70
1508223928.79,5924,16.69,74814.8,12.49,-26.07,-28.37,0,*74
1508223930.04,5925,16.69,74818.5,12.51,-25.81,-28.05,0,*70
1508223931.29,5926,16.69,74816.3,12.53,-26.03,-28.21,0,*7E
1508223932.51,5927,16.69,74814.8,12.53,-26.87,-29.45,0,*70
1508223933.75,5928,16.69,74818.8,12.53,-27.19,-29.45,0,*79
1508223934.98,5929,16.69,74818.0,12.51,-28.05,-30.27,0,*74
1508223936.17,5930,16.69,74812.8,12.51,-26.87,-29.23,0,*74
1508223937.4,5931,16.69,74812.8,12.51,-26.17,-28.37,0,*78
1508223938.68,5932,16.69,74810.8,12.53,-25.97,-28.21,0,*75
1508223939.92,5933,16.69,74816.3,12.53,-26.65,-29.17,0,*7E
1508223941.13,5934,16.69,74818.3,12.53,-26.87,-29.23,0,*72
1508223942.38,5935,16.69,74818.0,12.53,-26.39,-28.91,0,*7E
1508223943.62,5936,16.69,74810.0,12.53,-26.71,-29.07,0,*7F
1508223944.84,5937,16.69,74816.0,12.55,-26.29,-28.69,0,*7C
1508223946.12,5938,16.69,74814.5,12.57,-25.97,-28.25,0,*7F
1508223947.34,5939,16.69,74816.3,12.57,-25.61,-27.93,0,*75
1508223948.59,5940,16.69,74814.5,12.57,-25.61,-27.99,0,*71
1508223949.86,5941,16.69,74812.3,12.57,-25.45,-27.83,0,*7D
1508223951.06,5942,16.69,74814.5,12.59,-25.23,-27.71,0,*7D
1508223952.31,5943,16.69,74814.8,12.61,-25.81,-28.05,0,*73
1508223953.57,5944,16.69,74814.5,12.61,-25.97,-28.25,0,*71
1508223954.8,5945,16.69,74818.8,12.61,-26.03,-28.25,0,*7E
1508223956.09,5946,16.69,74814.8,12.63,-25.71,-28.05,0,*7B
1508223957.33,5947,16.69,74814.0,12.65,-25.45,-27.83,0,*7A
1508223958.57,5948,16.69,74812.5,12.65,-25.65,-27.99,0,*7C
1508223959.82,5949,16.69,74812.8,12.65,-26.81,-29.17,0,*7C
1508223961.08,5950,16.69,74816.8,12.67,-26.45,-28.91,0,*71
1508223962.35,5951,16.69,74812.5,12.67,-26.13,-28.59,0,*77
1508223963.61,5952,16.69,74812.5,12.67,-25.75,-28.15,0,*7F
1508223964.87,5953,16.75,74816.5,12.67,-25.97,-28.31,0,*74
1508223966.13,5954,16.69,74818.8,12.69,-25.71,-28.05,0,*72
1508223967.36,5955,16.69,74814.8,12.69,-25.55,-27.93,0,*75
1508223968.6,5956,16.69,74814.8,12.69,-25.97,-28.43,0,*7A
1508223969.86,5957,16.75,74816.3,12.69,-25.75,-28.05,0,*75
1508223971.07,5958,16.69,74812.3,12.69,-25.45,-27.89,0,*72
1508223972.34,5959,16.75,74818.3,12.75,-25.03,-27.45,0,*7C
1508223973.58,5960,16.69,74814.5,12.75,-25.13,-27.45,0,*77
1508223974.8,5961,16.69,74814.8,12.77,-25.13,-27.45,0,*74
1508223976.02,5962,16.75,74812.5,12.79,-25.13,-27.55,0,*78
1508223977.26,5963,16.69,74810.8,12.79,-25.45,-27.71,0,*7C
1508223978.5,5964,16.69,74814.0,12.79,-25.29,-27.71,0,*71
1508223979.72,5965,16.69,74812.3,12.79,-25.23,-27.55,0,*7C
1508223980.94,5966,16.69,74812.5,12.81,-24.97,-27.39,0,*7C
1508223982.16,5967,16.69,74816.3,12.83,-25.23,-27.55,0,*7B
1508223983.37,5968,16.75,74820.3,12.83,-25.09,-27.55,0,*7C
1508223984.6,5969,16.69,74812.3,12.85,-25.65,-28.05,0,*7B
1508223985.81,5970,16.69,74812.0,12.85,-25.45,-27.67,0,*7A
1508223987.08,5971,16.75,74816.5,12.87,-25.45,-27.61,0,*7F
1508223988.3,5972,16.69,74812.8,12.87,-24.97,-27.29,0,*7E
1508223989.55,5973,16.75,74818.5,12.87,-25.75,-28.15,0,*72
1508223990.83,5974,16.69,74816.0,12.87,-26.29,-28.63,0,*7E
1508223992.07,5975,16.69,74814.0,12.87,-26.61,-29.01,0,*76
1508223993.35,5976,16.75,74816.5,12.87,-26.29,-28.63,0,*7C
1508223994.62,5977,16.69,74818.0,12.87,-26.81,-29.17,0,*7D
1508223995.86,5978,16.75,74818.3,12.87,-27.13,-29.51,0,*7A
1508223997.09,5979,16.69,74816.0,12.87,-27.77,-30.33,0,*75
1508223998.36,5980,16.69,74816.3,12.87,-28.09,-30.55,0,*75
1508223999.62,5981,16.75,74816.3,12.83,-28.25,-30.67,0,*7F
1508224000.89,5982,16.69,74814.3,12.83,-28.09,-30.51,0,*77
1508224002.11,5983,16.69,74812.3,12.83,-27.03,-29.45,0,*7E
1508224003.33,5984,16.75,74816.5,12.79,-26.61,-28.97,0,*77
1508224004.58,5985,16.69,74814.3,12.81,-25.97,-28.59,0,*79
1508224005.8,5986,16.69,74814.3,12.81,-26.23,-28.63,0,*7F
1508224007.04,5987,16.75,74814.5,12.83,-26.87,-29.29,0,*7D
1508224008.29,5988,16.75,74812.8,12.83,-27.51,-29.89,0,*72
1508224009.51,5989,16.75,74812.8,12.81,-27.77,-30.39,0,*76
1508224010.71,5990,16.75,74816.3,12.81,-27.71,-30.23,0,*73
1508224011.92,5991,16.75,74814.8,12.81,-27.77,-30.33,0,*75
1508224013.14,5992,16.75,74814.0,12.79,-28.15,-30.67,0,*7B
1508224014.4,5993,16.75,74812.0,12.77,-28.79,-31.11,0,*7E
1508224015.65,5994,16.75,74812.8,12.77,-28.05,-30.55,0,*73
1508224016.85,5995,16.75,74814.3,12.77,-27.77,-30.23,0,*79
1508224018.08,5996,16.75,74812.5,12.77,-28.53,-30.77,0,*72
1508224019.3,5997,16.75,74816.3,12.73,-27.83,-30.27,0,*70
1508224020.54,5998,16.75,74814.0,12.73,-28.21,-30.67,0,*7C
1508224021.74,5999,16.75,74814.8,12.73,-27.71,-30.11,0,*76
1508224022.96,6000,16.69,74804.8,12.73,-26.71,-29.23,0,*74
1508224024.19,6001,16.75,74810.3,12.73,-26.17,-28.69,0,*7A
1508224025.44,6002,16.75,74808.3,12.75,-27.67,-30.17,0,*79
1508224026.65,6003,16.75,74812.8,12.73,-27.03,-29.45,0,*73
1508224027.85,6004,16.75,74810.8,12.73,-26.49,-28.85,0,*76
1508224029.11,6005,16.75,74810.8,12.75,-26.03,-28.63,0,*77
1508224030.31,6006,16.75,74812.0,12.73,-27.03,-29.57,0,*75
1508224031.56,6007,16.75,74810.5,12.75,-26.81,-29.23,0,*7A
1508224032.8,6008,16.75,74810.0,12.75,-26.45,-29.01,0,*7D
1508224034.05,6009,16.75,74810.8,12.75,-25.81,-28.31,0,*75
1508224035.31,6010,16.75,74810.3,12.79,-25.71,-28.15,0,*78
1508224036.53,6011,16.75,74810.5,12.79,-26.45,-28.97,0,*77
1508224037.8,6012,16.75,74814.3,12.79,-25.97,-28.47,0,*75
1508224039.02,6013,16.75,74814.0,12.77,-26.77,-29.23,0,*74
1508224040.27,6014,16.75,74812.8,12.79,-26.07,-28.59,0,*76
1508224041.51,6015,16.75,74808.5,12.79,-26.39,-28.75,0,*74
1508224042.76,6016,16.75,74814.0,12.79,-26.93,-29.45,0,*75
1508224043.98,6017,16.75,74808.0,12.79,-27.29,-29.79,0,*7B
1508224045.2,6018,16.75,74808.3,12.77,-26.61,-29.01,0,*78
1508224046.47,6019,16.75,74808.5,12.79,-26.55,-29.01,0,*70
1508224047.7,6020,16.75,74808.3,12.79,-26.23,-28.75,0,*79
1508224048.94,6021,16.75,74812.0,12.81,-26.71,-29.17,0,*7D
1508224050.16,6022,16.75,74814.0,12.81,-26.23,-28.63,0,*7B
1508224051.39,6023,16.75,74808.5,12.81,-25.75,-28.15,0,*7B
1508224052.67,6024,16.75,74808.8,12.83,-25.71,-28.21,0,*7D
1508224053.9,6025,16.75,74810.5,12.83,-25.39,-27.89,0,*7D
1508224055.14,6026,16.75,74810.8,12.83,-25.65,-28.09,0,*70
1508224056.36,6027,16.75,74810.3,12.85,-25.13,-27.61,0,*77
1508224057.61,6028,16.75,74814.0,12.87,-25.23,-27.61,0,*79
1508224058.83,6029,16.75,74808.5,12.85,-25.13,-27.61,0,*79
1508224060.07,6030,16.75,74808.5,12.87,-25.09,-27.61,0,*78
1508224061.28,6031,16.75,74808.5,12.91,-24.93,-27.51,0,*7F
1508224062.48,6032,16.75,74810.0,12.89,-25.39,-27.77,0,*70
1508224063.7,6033,16.75,74808.3,12.91,-25.19,-27.67,0,*7B
1508224064.91,6034,16.75,74808.0,12.95,-26.03,-28.53,0,*78
1508224066.15,6035,16.75,74810.8,12.91,-26.87,-29.39,0,*7C
1508224067.35,6036,16.75,74812.0,12.95,-26.45,-28.85,0,*73
1508224068.6,6037,16.75,74810.8,12.95,-26.29,-28.63,0,*70
1508224069.83,6038,16.75,74808.5,12.95,-25.81,-28.31,0,*79
1508224071.06,6039,16.75,74810.0,12.95,-25.49,-27.99,0,*71
1508224072.26,6040,16.75,74808.5,12.95,-25.49,-27.89,0,*7E
1508224073.49,6041,16.75,74812.0,12.97,-26.03,-28.53,0,*78
1508224074.77,6042,16.75,74812.3,12.97,-26.13,-28.47,0,*7F
1508224076.06,6043,16.75,74812.0,12.97,-25.55,-28.05,0,*79
1508224077.3,6044,16.75,74808.8,12.97,-25.45,-27.89,0,*74
1508224078.53,6045,16.75,74812.5,12.99,-25.29,-27.55,0,*70
1508224079.76,6046,16.75,74812.3,13.01,-24.77,-27.29,0,*72
1508224080.99,6047,16.75,74812.3,13.01,-24.93,-27.29,0,*79
1508224082.21,6048,16.75,74810.0,13.05,-25.35,-27.71,0,*72
1508224083.44,6049,16.75,74808.8,13.05,-25.35,-27.71,0,*73
1508224084.72,6050,16.75,74810.0,13.05,-25.71,-28.25,0,*75
1508224085.97,6051,16.75,74808.0,13.05,-25.13,-27.45,0,*79
1508224087.25,6052,16.75,74810.0,13.05,-25.03,-27.35,0,*7C
1508224088.45,6053,16.75,74810.3,13.07,-25.19,-27.51,0,*76
1508224089.68,6054,16.75,74808.8,13.07,-25.81,-28.31,0,*79
1508224090.9,6055,16.75,74808.8,13.09,-25.23,-27.67,0,*72
1508224092.15,6056,16.75,74808.0,13.09,-25.09,-27.39,0,*72
1508224093.38,6057,16.75,74808.8,13.09,-25.13,-27.51,0,*76
1508224094.63,6058,16.75,74810.3,13.09,-25.91,-28.25,0,*7F
1508224095.85,6059,16.75,74808.3,13.11,-25.61,-28.09,0,*76
1508224097.08,6060,16.75,74810.0,13.11,-25.61,-28.05,0,*70
1508224098.33,6061,16.75,74814.5,13.11,-26.17,-28.47,0,*75
1508224099.58,6062,16.81,74812.8,13.13,-26.07,-28.43,0,*71
1508224100.83,6063,16.75,74812.0,13.11,-25.55,-28.05,0,*74
1508224102.09,6064,16.75,74814.0,13.13,-25.87,-28.21,0,*78
1508224103.36,6065,16.75,74810.5,13.13,-26.17,-28.47,0,*73